Showing default

SIT-HSE, 61763

Orbit data source: Space-Track

SIT-HSE, 61763 is a Commonwealth of Independent States-origin payload satellite in SSO that was launched on Mon, 04 Nov 2024 UTC via a SOYUZ-2-1B launch vehicle from the Vostochny Cosmodrome (VOSTO). Payload-class satellites include a variety of spacecraft equipped with specific instruments for various scientific and technological missions. These include communications satellites like Starlink; space stations such as the ISS; scientific satellites like the Hubble; Earth observation satellites from companies like Planet Labs, Umbra, and HawkEye 360; GPS; miniature CubeSats for education and research; and military/defense satellites.

Loading next visibility...
Identifier
61763, 2024-199AE
Orbit
SSO
Country
Flag of CISCIS
Related business
Manufacturer
Sputniks
Mission
Operational Amateur Technology
Bus & Motor
CUBESAT 3U, Unknown motor
Mass
3 kg wet, 3 kg dry
Launch date (UTC)
2024-11-04 (10 months ago)
Launch vehicle
SOYUZ-2-1B
Launch site
Vostochny Cosmodrome (VOSTO)
Object type
Payload
Rocket body
Debris
Shape & HBR
Box, 0.1 m
Radar Cross Section
0.035 m², Small (<0.1 m²)

Expand to show TLE details & history
Last TLE update: 14 hours ago

TLE from 14 hours ago
0 SIT-HSE
1 61763U 24199AE  25260.25813629  .00012933  00000-0  34432-3 0  9996
2 61763  97.3380 129.2787 0007795 186.6833 173.4310 15.38300575 95431
Epoch: 2025-09-17T06:11Z
TLE epoch observation values (Epoch: 2025-09-17T06:11:42.975Z)
Latitude
0.00002°
Longitude
39.91297°
Altitude
459.541 km
Speed
7.634 km/s
True Right ascension
08h 37m 06s
True Declination
0° 00' 00"
Sunlit
Object was in daylight at epoch
Visualization orbit readout
Latitude
Unknown
Longitude
Unknown
Altitude
Unknown
Speed
Unknown
Apparent Right ascension
Unknown
Apparent Declination
Unknown
Sunlit
N/A
Visualization observer readout
Local Sidereal Time
13:10:18
Azimuth
Unknown
Elevation
Unknown
Doppler factor
Unknown
Orbital elements
Apogee altitude
453.394 km
Perigee altitude
442.752 km
Semi-major axis
6,826.21 km
Eccentricity
0.00078
Inclination
97.338°
RAAN
129.2787°
Arg. of periapsis
186.6833°
True anomaly
173.44121°
Mean anomaly
173.431°
Eccentric anomaly
173.43611°
Mean motion
3.84834 °/min
Orbital period
93.55 mins
BSTAR
0.00034432
Loading maneuver chart data...
Computing Atmospheric mass density...
Loading historical data...
Loading historical data...
Loading historical data...
Loading historical data...
Loading historical data...
Loading historical data...
Loading historical data...

Documentation

Showing up to 5 results
|